Dewpoint
51 51 51 51 51 51 51 51 51 51 51 51 52 52 52 52 52 51 52 52 52 53 53 53 54 54 54 53 53 53 54 51 49 48 47 46 49 52 57 58 61 60 60 49 41 36 30 32 31 32 36 35 33 33 33 32 30 22 18 13 15 12 10 11 12 11 10 9 9 8 9 15 18 37 50 56 58 60 61 61 63 64 64 64 66 67 67 68
51 51 51 51 51 51 51 51 51 51 51 51 51 52 52 51 52 52 52 52 52 52 53 53 53 54 53 53 54 54 53 50 49 48 47 48 56 55 58 57 59 60 56 42 39 33 27 27 29 33 33 32 33 30 32 28 29 20 17 14 9 11 10 11 11 10 9 8 8 7 7 16 21 24 28 53 55 59 61 62 63 64 65 65 66 67 67 68
50 50 51 51 51 51 51 51 51 51 51 51 51 51 51 51 52 52 52 52 52 52 52 53 53 53 53 53 53 54 51 49 48 46 46 57 58 57 57 58 58 63 44 40 40 32 27 26 29 31 31 30 30 29 29 27 20 15 14 11 10 10 10 15 12 9 11 9 7 8 7 10 8 18 37 52 56 59 60 61 62 63 63 65 66 66 67 67
50 50 50 51 51 51 51 52 52 52 52 51 51 51 51 51 51 51 51 52 52 52 52 53 53 53 53 53 54 52 50 48 43 44 46 60 61 58 58 58 60 61 42 34 34 31 28 29 28 29 29 29 29 30 27 24 22 13 12 10 10 11 10 11 11 11 10 9 9 8 10 8 8 10 45 51 52 55 59 62 62 63 64 65 66 66 66 67
50 50 51 51 51 51 51 51 52 51 52 51 52 52 51 51 51 51 52 52 52 52 52 53 53 53 53 53 53 51 48 23 37 42 46 62 64 61 58 60 62 53 41 35 31 30 30 26 28 27 28 27 29 29 27 26 17 13 9 10 10 10 9 10 11 12 11 12 10 8 8 9 9 9 37 49 50 52 57 60 63 64 64 65 65 66 66 66
50 50 50 51 51 51 51 51 51 51 51 51 51 52 52 52 51 51 52 52 52 52 52 52 52 52 53 53 52 51 39 7 31 39 63 63 64 62 59 61 63 48 39 31 27 27 25 24 24 24 25 26 27 28 25 24 20 15 14 10 9 10 10 11 11 12 12 10 8 7 8 13 6 9 9 37 47 52 55 61 64 64 65 65 66 66 65 64
50 50 51 51 51 51 51 51 51 51 51 51 51 51 52 52 51 51 51 51 51 52 52 52 52 52 53 53 50 49 42 31 43 41 62 63 63 62 60 63 60 41 35 29 28 24 23 23 23 23 25 25 26 25 26 23 17 14 13 9 7 7 8 10 11 12 11 10 8 8 10 9 8 6 17 44 47 49 59 64 64 64 65 65 65 65 62 61
50 50 50 50 50 51 51 51 51 51 51 51 51 51 51 51 51 51 51 51 51 51 51 51 51 52 53 50 48 44 45 38 39 42 65 63 62 62 60 53 44 36 31 26 25 23 23 22 22 24 23 24 24 25 24 21 20 16 12 11 10 8 6 8 11 11 11 9 8 10 9 7 8 7 31 45 48 50 61 63 64 64 65 65 64 61 61 60
49 50 50 50 50 50 50 50 50 51 51 51 51 51 51 51 51 51 51 50 50 51 51 51 51 51 52 49 47 32 22 36 35 52 60 56 56 50 43 39 39 32 28 27 25 23 23 24 24 25 22 23 23 21 20 19 17 14 13 12 9 7 6 5 7 10 10 10 10 9 8 9 9 11 27 44 48 50 55 62 63 64 64 64 62 61 60 60
49 49 49 49 50 50 50 50 50 50 50 50 50 51 51 51 51 51 51 51 50 51 51 51 51 51 50 48 46 27 23 37 50 57 53 51 48 41 38 34 31 29 27 27 26 24 23 25 26 25 24 20 19 16 16 15 14 10 7 6 4 3 3 6 6 6 8 11 9 7 8 6 5 8 4 34 46 48 55 61 63 64 64 64 62 61 61 60
49 49 50 50 50 50 50 50 51 51 51 51 51 51 51 50 51 51 50 50 51 50 51 51 51 51 48 48 41 27 33 37 51 49 47 47 42 39 37 29 27 26 26 28 27 26 25 25 26 28 24 17 13 11 12 12 11 8 6 5 4 4 5 4 4 7 9 8 8 6 6 5 5 7 3 37 39 46 55 60 62 63 64 64 62 61 61 60
50 50 50 50 50 50 51 50 50 51 51 51 50 51 50 51 51 51 51 50 50 50 50 50 51 50 49 47 42 23 31 38 37 45 45 43 39 36 35 27 25 23 25 25 27 28 28 28 31 29 19 11 9 10 7 10 12 10 9 5 4 4 4 6 3 4 9 7 9 8 8 9 7 2 4 26 44 45 53 58 60 62 63 63 61 61 61 61
50 50 50 50 51 51 50 51 51 51 51 50 51 51 51 50 51 51 51 51 51 50 50 50 50 50 47 36 38 38 33 32 29 27 28 38 36 32 26 24 24 22 24 23 23 25 27 27 29 26 24 19 11 9 9 12 12 11 10 7 4 4 4 6 9 8 7 10 10 9 8 9 7 6 3 9 44 46 51 55 57 61 63 62 61 61 61 61
50 50 50 50 50 50 50 51 51 51 51 51 51 51 51 51 51 52 52 51 52 51 51 51 51 49 47 39 40 41 40 39 37 36 34 31 32 32 29 24 22 21 22 21 20 20 22 24 24 22 21 16 13 14 12 11 13 10 9 8 9 6 5 7 12 11 8 11 10 8 9 9 8 6 5 6 44 46 49 52 55 60 62 61 61 61 60 60
49 50 49 50 50 50 50 50 50 50 50 51 51 51 51 51 52 52 52 52 51 50 51 51 51 49 44 42 45 46 55 50 42 38 33 32 31 31 29 27 25 21 19 20 20 24 23 24 23 20 16 17 16 14 12 11 11 11 9 10 12 6 7 5 9 11 5 7 11 7 12 8 7 6 5 4 33 45 47 49 54 59 61 60 60 60 60 60
49 49 50 50 50 50 50 50 50 50 50 50 50 50 51 51 51 52 52 52 51 50 49 48 48 48 44 38 38 49 39 49 47 47 43 32 31 30 30 29 28 27 24 21 21 22 23 23 20 19 16 15 15 12 15 10 14 19 10 20 13 16 9 5 5 7 7 6 8 6 8 8 4 4 4 3 2 39 44 45 54 58 59 59 59 59 59 59
49 49 50 50 50 50 50 50 50 50 50 50 50 50 51 51 51 52 51 51 51 50 48 47 48 49 33 36 42 36 35 37 45 44 42 39 35 33 32 29 28 27 27 27 26 24 24 22 24 25 20 14 13 12 11 13 12 13 19 15 20 13 13 7 7 6 6 5 3 5 5 9 12 9 3 3 2 17 42 43 52 57 58 58 59 59 59 59
49 50 50 50 49 49 49 50 50 49 49 50 50 49 48 50 52 52 50 51 50 48 48 48 47 44 37 44 35 34 39 37 37 37 36 34 37 35 33 29 28 27 27 25 25 24 22 22 20 23 25 24 18 14 13 9 11 15 16 16 15 15 13 9 6 5 7 5 5 6 6 6 4 4 4 2 2 6 38 42 51 55 57 57 58 59 58 59
49 49 49 49 49 49 49 49 50 49 49 50 49 49 50 52 49 48 47 47 46 41 37 43 39 23 21 31 38 39 41 38 35 33 30 26 25 25 28 32 29 26 26 24 25 22 19 25 27 19 17 18 17 12 10 11 15 14 15 17 19 16 12 9 7 7 7 5 1 3 5 4 5 5 5 8 7 7 29 42 48 53 55 57 58 59 58 58
49 49 49 49 49 49 49 49 49 50 50 49 46 44 42 38 37 44 47 47 45 42 33 36 40 30 27 29 28 30 34 34 31 32 31 26 23 21 21 23 26 25 24 24 25 25 20 18 16 16 17 24 27 24 17 12 10 11 12 13 11 11 11 9 8 8 8 7 5 4 6 4 5 6 8 9 13 14 23 39 49 52 54 56 57 59 59 59
49 49 49 49 49 49 49 50 50 50 50 48 46 37 20 23 11 12 40 45 45 44 40 35 40 36 32 31 31 30 32 32 31 32 32 28 22 20 20 21 24 27 24 22 24 35 23 18 17 19 24 24 24 27 28 25 24 13 13 14 14 15 14 13 12 13 13 18 9 7 4 4 6 8 9 11 16 13 24 42 49 51 53 55 58 59 59 60
49 49 49 49 49 49 49 49 50 50 50 47 45 39 34 28 12 16 19 16 19 39 41 39 37 38 38 35 33 33 35 31 31 30 27 24 21 18 22 20 23 22 25 24 23 20 19 16 19 23 21 26 27 28 28 26 23 21 16 13 14 13 13 14 15 18 19 26 16 13 7 4 6 8 9 11 13 14 20 45 48 50 52 53 58 59 60 60
48 49 49 49 49 49 49 49 50 49 47 45 43 41 38 34 32 31 29 23 24 27 35 37 38 37 35 36 37 37 34 33 29 27 24 23 21 18 23 21 23 22 24 24 20 22 18 16 18 17 24 25 24 26 26 28 31 23 19 19 16 15 14 12 22 22 22 24 21 18 9 9 9 9 11 11 12 15 20 41 49 50 51 53 58 60 60 60
48 48 48 49 49 49 49 49 48 46 44 44 41 38 37 36 36 36 35 32 28 26 27 28 33 34 33 29 32 32 31 29 29 26 27 19 20 21 23 22 22 20 18 18 19 19 15 15 16 18 19 21 22 23 25 24 20 26 26 19 16 14 14 13 19 25 27 21 31 19 18 12 20 9 10 11 21 29 29 33 49 50 51 54 59 60 60 60
48 48 48 48 48 49 48 48 44 44 43 43 42 42 40 39 39 37 34 32 33 31 29 26 25 23 24 30 31 30 30 29 27 25 26 21 24 23 22 23 22 20 19 16 16 17 15 16 23 14 15 16 19 18 22 25 21 22 28 23 18 16 15 20 25 21 19 16 24 15 10 13 24 28 14 15 20 22 30 43 49 50 50 57 59 59 59 60
48 48 48 48 48 48 48 44 44 43 42 37 28 30 35 37 36 41 35 34 28 31 30 25 24 22 22 21 26 26 28 26 27 26 25 23 28 23 24 22 21 19 18 16 13 19 15 18 21 16 17 15 13 14 15 25 20 21 23 29 22 18 22 25 23 21 15 11 20 27 12 12 24 20 20 24 19 18 23 41 48 48 51 56 58 59 60 60
48 48 48 48 48 48 42 37 44 43 33 23 30 37 39 40 39 40 28 26 25 34 31 25 22 21 21 19 22 21 20 20 24 25 25 28 25 25 22 21 20 20 16 21 15 11 12 12 14 15 22 17 15 13 16 21 21 20 29 26 22 19 20 23 24 20 16 27 26 29 20 14 12 21 28 24 21 23 25 33 44 49 54 56 58 59 60 60
48 48 48 48 48 48 45 45 44 40 37 34 38 40 41 42 39 42 30 15 -0 22 30 21 22 25 22 17 20 18 23 25 22 22 22 26 26 25 22 19 15 16 14 13 10 18 24 19 18 15 19 16 13 13 17 22 19 22 29 23 20 18 23 20 17 18 19 17 11 19 27 14 17 24 27 24 18 20 43 48 51 53 55 57 59 59 59 59
48 48 48 48 48 48 47 45 44 41 40 41 41 41 42 42 40 31 28 16 20 25 23 25 29 27 26 16 17 17 20 23 20 22 23 25 24 23 21 21 16 12 12 12 11 22 20 14 11 10 13 17 16 14 14 23 20 24 24 23 20 21 20 21 16 15 19 13 13 22 28 13 17 27 25 26 17 28 46 49 51 54 56 58 58 58 58 58
48 48 48 48 47 45 44 45 44 44 43 43 43 42 44 39 33 25 18 12 28 20 21 19 24 26 23 13 15 16 18 21 21 23 24 22 23 22 23 22 19 18 17 18 14 15 16 23 26 12 9 14 19 18 17 21 21 28 19 17 15 14 16 20 20 15 18 12 15 24 31 18 14 25 25 24 26 39 48 50 52 54 56 57 58 57 57 56
48 48 48 48 45 44 44 41 42 45 45 44 41 42 36 34 28 20 17 21 24 19 16 23 21 26 25 14 15 17 18 22 22 18 22 25 24 23 24 21 21 22 21 22 20 16 15 14 11 14 18 16 17 17 20 18 17 15 19 15 15 15 23 16 21 20 9 12 21 25 26 22 16 23 34 38 40 44 49 49 51 53 55 56 57 57 57 56
48 48 49 47 47 46 43 34 36 41 40 43 45 38 28 18 23 20 18 28 23 24 13 15 15 19 23 24 25 20 18 21 24 18 21 23 25 23 24 23 24 19 18 18 16 25 22 16 12 11 25 15 15 13 15 12 10 13 14 16 15 15 15 12 15 7 9 12 17 26 21 18 19 33 41 43 43 46 49 51 52 53 54 54 55 56 57 57
48 49 49 48 49 46 46 43 43 43 44 45 42 35 24 16 8 22 22 22 24 17 18 17 13 6 12 20 21 23 23 21 27 23 19 24 23 23 23 22 23 23 17 25 19 16 15 21 17 13 14 19 15 13 15 13 15 10 10 16 10 7 8 6 15 11 14 17 23 22 25 17 30 38 43 45 46 49 50 51 52 53 53 53 54 55 57 57
48 48 46 47 47 47 47 47 46 46 45 46 35 30 24 8 12 39 22 21 17 17 18 13 4 4 6 16 23 21 22 25 20 22 19 24 23 24 24 22 19 22 24 22 14 18 9 10 15 14 15 17 14 15 14 20 21 9 10 10 14 18 14 7 13 7 8 11 20 26 16 14 29 36 45 48 50 50 51 52 52 52 52 53 54 56 57 57
48 48 46 46 47 47 47 46 46 47 46 42 29 25 17 17 22 23 25 25 20 18 10 6 3 5 8 8 25 22 26 37 39 30 24 22 24 25 24 22 21 20 20 13 24 16 12 15 20 17 13 14 12 13 13 12 19 19 19 15 15 15 24 11 19 19 17 13 13 21 19 31 36 43 48 51 51 51 51 51 51 51 53 53 54 55 56 56
47 44 47 48 48 49 47 47 46 47 44 37 26 19 16 22 19 24 20 19 12 9 9 5 6 5 11 9 14 22 33 27 43 30 32 25 25 24 24 23 21 20 18 18 23 11 17 15 23 18 14 13 12 14 14 11 15 27 12 14 15 21 22 20 19 25 20 23 13 21 31 36 39 43 47 50 50 50 51 51 52 52 53 53 53 54 54 55
44 45 45 50 48 49 47 47 47 46 43 36 24 17 25 25 21 18 22 13 14 13 6 3 12 5 16 13 13 11 30 30 37 30 27 29 29 31 26 33 28 22 18 20 20 18 14 17 27 18 13 12 12 13 12 11 21 19 15 16 21 27 26 19 14 16 14 13 16 25 25 29 26 27 39 48 49 50 51 52 52 53 53 52 52 53 53 54
45 44 48 46 45 47 47 46 47 45 39 33 25 34 33 27 24 18 19 16 14 10 6 8 15 9 14 9 7 12 28 23 36 29 29 33 28 37 35 32 33 30 30 27 15 23 20 13 13 14 12 18 16 13 10 11 19 13 14 21 17 14 10 25 20 11 10 10 11 23 30 32 33 32 39 45 48 49 50 52 52 52 52 52 53 53 54 54
44 45 43 43 47 48 47 47 46 41 35 29 24 25 32 27 25 21 18 14 12 11 10 6 9 16 10 10 14 15 15 22 29 32 26 33 27 37 39 36 39 33 30 28 22 25 27 14 18 24 19 26 28 15 17 21 20 16 22 19 32 28 27 16 16 20 19 17 13 19 28 23 36 36 39 44 46 50 51 51 52 52 52 53 54 53 54 55
44 42 41 44 48 49 49 46 43 38 34 28 28 29 29 26 26 26 23 18 15 16 16 10 6 9 17 16 12 15 23 30 28 34 30 36 33 36 36 39 37 35 30 31 28 32 24 21 15 24 23 23 27 31 22 22 24 23 20 19 21 30 37 26 28 18 19 20 19 20 17 28 36 40 44 44 46 49 50 50 51 52 53 53 54 54 54 55
43 39 41 46 46 46 45 43 38 34 32 34 34 33 32 29 28 29 29 28 25 25 22 17 12 9 19 18 16 16 18 15 32 31 34 36 34 29 38 41 37 44 38 33 29 33 26 24 18 25 17 21 32 35 23 27 28 28 21 26 24 26 20 15 20 29 25 24 21 20 18 29 40 47 47 47 47 49 50 50 51 52 53 53 53 54 54 55
40 35 39 45 47 46 42 36 36 38 34 33 32 32 29 34 30 29 28 27 27 24 23 19 15 18 23 21 19 18 18 19 33 32 32 29 33 32 39 38 35 37 37 34 31 35 30 29 24 21 21 23 25 26 29 30 31 32 32 31 31 29 27 21 16 23 25 26 27 25 28 27 43 46 45 47 48 49 50 51 51 52 52 52 53 54 54 55
40 38 43 45 48 42 38 32 35 32 32 34 34 32 32 30 30 29 27 26 25 25 25 22 21 23 24 18 21 19 16 20 17 33 36 37 35 34 37 38 35 37 36 36 34 35 50 24 24 24 29 30 28 27 29 30 29 30 32 35 34 32 31 24 23 27 24 25 22 24 25 30 45 48 48 48 48 49 49 50 50 50 51 51 52 53 54 54
39 39 40 44 47 40 34 26 28 28 32 36 36 34 33 32 30 28 28 29 29 29 27 25 22 21 24 20 21 19 19 19 23 29 29 34 31 36 37 35 37 36 30 35 32 38 24 30 26 22 20 24 26 26 26 29 29 31 31 34 36 36 36 34 29 29 23 25 24 23 20 31 44 47 48 47 48 48 48 49 50 49 50 51 52 52 53 53
39 41 42 39 44 41 33 34 31 28 32 34 34 33 32 33 31 31 32 30 27 24 28 25 25 27 27 28 23 22 21 21 24 28 31 34 31 31 33 35 33 33 37 42 45 37 31 31 27 21 15 13 13 16 20 24 30 31 34 34 35 36 36 29 19 21 19 25 24 24 29 37 45 47 46 46 47 48 49 49 50 49 50 51 51 52 52 52
36 24 29 31 36 38 38 40 37 34 30 32 28 31 34 31 30 31 33 32 25 30 28 30 29 30 29 29 28 29 31 33 30 32 33 33 33 29 31 32 37 39 47 46 42 40 32 35 31 26 23 23 24 27 30 31 32 30 33 35 36 37 38 33 28 26 23 23 25 32 38 39 42 44 44 46 47 47 48 49 49 49 50 51 51 51 50 49
38 26 26 25 32 32 33 35 35 35 29 33 27 32 32 30 31 29 31 32 27 26 32 29 28 29 28 29 30 30 29 33 33 33 33 35 35 33 34 35 37 44 47 42 44 37 37 30 35 32 31 31 29 30 32 30 29 31 33 35 37 37 37 36 31 26 31 25 23 35 41 39 41 43 43 44 46 47 48 48 49 48 45 42 41 40 40 36
28 27 35 33 28 25 27 26 33 32 33 35 29 35 32 29 29 27 30 27 28 26 29 28 25 27 27 29 32 24 27 33 31 29 35 33 33 33 31 34 35 40 39 38 42 39 34 28 34 34 33 33 30 32 33 33 33 33 35 36 36 38 37 36 34 36 34 25 27 38 41 40 42 43 43 44 46 47 47 47 45 39 37 36 36 35 34 34
32 32 33 35 30 31 30 31 35 31 30 34 33 33 29 28 29 27 29 30 29 27 26 22 26 25 27 25 29 26 26 25 24 33 32 29 30 34 31 35 34 36 38 41 41 42 36 32 37 38 35 35 36 33 31 33 36 35 36 37 37 37 37 38 38 38 35 34 37 40 40 38 42 45 46 47 48 48 47 44 39 36 35 35 34 33 33 34
32 32 31 35 34 32 33 32 32 29 25 32 29 30 32 28 28 27 29 28 26 28 26 29 26 25 28 25 28 26 25 28 25 22 32 29 28 35 33 33 33 40 38 38 39 36 36 31 37 38 33 35 34 36 36 31 33 33 33 34 35 37 38 38 38 38 40 40 40 38 36 35 40 43 44 44 44 44 42 41 40 38 35 34 33 33 34 34
33 38 36 34 30 33 31 27 29 28 25 27 27 29 33 26 28 27 30 27 29 29 27 28 28 28 30 27 28 26 27 27 27 27 28 28 25 35 27 32 39 35 38 40 40 37 37 31 36 35 29 30 34 36 34 33 33 32 32 32 34 34 32 34 34 37 38 37 37 36 34 33 38 41 42 41 40 39 38 37 37 36 36 34 33 33 34 34
36 37 40 35 29 35 19 24 26 28 23 26 28 27 27 27 27 27 24 26 26 25 29 30 31 27 27 26 26 26 26 25 23 22 22 23 24 24 24 25 29 34 34 40 40 33 37 32 31 31 29 28 37 35 32 31 29 28 30 32 34 35 36 38 38 39 39 39 36 34 33 38 39 41 37 38 36 35 35 37 35 36 38 37 35 35 35 36